STARS-ME (43640 NORAD) Tracking and Keplerian Element Data

This shows tracking and keplerian element data for the satellite.

Feedback or suggestion? Click here.




ElementValue
Catalog43640
NameSTARS-ME
Epoch Orbit4474
Epoch Day201.8674092
Epoch Year2019
RAAN185.9444
Inclination51.6362
Eccentricity0.0004644
Argument of Perigee214.0465
Mean Anonmoly146.023
Mean Motion15.58880047
Decay Rate4.582E-05
L11 43640U 98067PQ 19201.86740920 .00004582 00000-0 64424-4 0 9999
L22 43640 51.6362 185.9444 0004644 214.0465 146.0230 15.58880047 44748

Live tracking and technical data element details for STARS-ME (NORAD 43640). STARS-ME can be tracked NOW for your location showing map with azimuth and elevation plus other details from your city location.

Track the satellite on the map from your city or location and see movement details for azimuth, elevation, latitude, longitude, range, height, and movement on the map or in text.







IsCatalogInMostPopularTable: catalog: 43640, numindb: 194
Update: records affected: 1



GetName: 43640 STARS-ME

Hit Count: updated at: Sun, 21 Jul 2019 16:01:11 GMT